Time,TemperatureF,DewpointF,PressureIn,WindDirection,WindDirectionDegrees,WindSpeedMPH,WindSpeedGustMPH,Humidity,HourlyPrecipIn,Conditions,Clouds,dailyrainin,SoftwareType,DateUTC
2013-01-25 00:02:00,58.0,56.0,30.09,SSW,207,5.0,5.0,92,0.00,,,0.00,,2013-01-25 06:02:00,
2013-01-25 00:11:00,58.0,56.0,30.09,SSW,207,5.0,5.0,92,0.00,,,0.00,,2013-01-25 06:11:00,
2013-01-25 00:21:00,59.0,56.0,30.08,SSW,193,7.0,7.0,91,0.00,,,0.00,,2013-01-25 06:21:00,
2013-01-25 00:32:00,59.0,56.0,30.08,SSW,212,5.0,6.0,90,0.00,,,0.00,,2013-01-25 06:32:00,
2013-01-25 00:42:00,59.0,56.0,30.08,SW,229,5.0,5.0,90,0.00,,,0.00,,2013-01-25 06:42:00,
2013-01-25 00:52:00,59.0,56.0,30.08,SW,229,5.0,5.0,90,0.00,,,0.00,,2013-01-25 06:52:00,
2013-01-25 01:02:00,60.0,57.0,30.08,SSW,212,7.0,8.0,90,0.00,,,0.00,,2013-01-25 07:02:00,
2013-01-25 01:11:00,60.0,57.0,30.08,SW,224,8.0,8.0,90,0.00,,,0.00,,2013-01-25 07:11:00,
2013-01-25 01:21:00,60.0,57.0,30.08,SW,224,8.0,8.0,90,0.00,,,0.00,,2013-01-25 07:21:00,
2013-01-25 01:31:00,60.0,57.0,30.08,SSW,200,5.0,5.0,90,0.00,,,0.00,,2013-01-25 07:31:00,
2013-01-25 01:42:00,60.0,57.0,30.08,SSW,200,5.0,5.0,90,0.00,,,0.00,,2013-01-25 07:42:00,
2013-01-25 01:52:00,60.0,57.0,30.08,WSW,245,6.0,6.0,89,0.00,,,0.00,,2013-01-25 07:52:00,
2013-01-25 02:01:00,60.0,57.0,30.08,West,269,6.0,7.0,89,0.00,,,0.00,,2013-01-25 08:01:00,
2013-01-25 02:11:00,58.0,55.0,30.08,West,278,5.0,5.0,91,0.00,,,0.00,,2013-01-25 08:11:00,
2013-01-25 02:21:00,58.0,55.0,30.08,West,278,5.0,5.0,91,0.00,,,0.00,,2013-01-25 08:21:00,
2013-01-25 02:32:00,57.0,55.0,30.07,WSW,249,4.0,4.0,93,0.00,,,0.00,,2013-01-25 08:32:00,
2013-01-25 02:41:00,57.0,55.0,30.07,WSW,249,4.0,4.0,93,0.00,,,0.00,,2013-01-25 08:41:00,
2013-01-25 02:52:00,55.0,54.0,30.07,WSW,240,5.0,5.0,95,0.00,,,0.00,,2013-01-25 08:52:00,
2013-01-25 03:01:00,55.0,54.0,30.07,West,260,6.0,6.0,96,0.00,,,0.00,,2013-01-25 09:01:00,
2013-01-25 03:11:00,54.0,53.0,30.07,WSW,257,5.0,5.0,96,0.00,,,0.00,,2013-01-25 09:11:00,
2013-01-25 03:21:00,54.0,53.0,30.07,WSW,257,5.0,5.0,96,0.00,,,0.00,,2013-01-25 09:21:00,
2013-01-25 03:31:00,55.0,54.0,30.06,WSW,240,6.0,6.0,96,0.00,,,0.00,,2013-01-25 09:31:00,
2013-01-25 03:41:00,55.0,54.0,30.06,WSW,240,6.0,6.0,96,0.00,,,0.00,,2013-01-25 09:41:00,
2013-01-25 03:52:00,54.0,53.0,30.06,West,271,3.0,3.0,97,0.00,,,0.00,,2013-01-25 09:52:00,
2013-01-25 04:01:00,53.0,52.0,30.06,WSW,255,4.0,6.0,97,0.00,,,0.00,,2013-01-25 10:01:00,
2013-01-25 04:12:00,52.0,51.0,30.06,WSW,255,3.0,4.0,98,0.00,,,0.00,,2013-01-25 10:12:00,
2013-01-25 04:21:00,52.0,51.0,30.06,WSW,255,3.0,4.0,98,0.00,,,0.00,,2013-01-25 10:21:00,
2013-01-25 04:31:00,52.0,51.0,30.06,West,274,0.0,0.0,98,0.00,,,0.00,,2013-01-25 10:31:00,
2013-01-25 04:42:00,52.0,51.0,30.06,West,274,0.0,0.0,98,0.00,,,0.00,,2013-01-25 10:42:00,
2013-01-25 04:52:00,51.0,51.0,30.07,West,274,0.0,0.0,99,0.00,,,0.00,,2013-01-25 10:52:00,
2013-01-25 05:02:00,53.0,53.0,30.07,NW,315,3.0,3.0,99,0.00,,,0.00,,2013-01-25 11:02:00,
2013-01-25 05:11:00,53.0,53.0,30.07,NW,315,3.0,3.0,99,0.00,,,0.00,,2013-01-25 11:11:00,
2013-01-25 05:22:00,52.0,52.0,30.07,West,277,3.0,3.0,99,0.00,,,0.00,,2013-01-25 11:22:00,
2013-01-25 05:32:00,50.0,50.0,30.06,WSW,243,5.0,5.0,100,0.00,,,0.00,,2013-01-25 11:32:00,
2013-01-25 05:42:00,50.0,50.0,30.06,WSW,243,5.0,5.0,100,0.00,,,0.00,,2013-01-25 11:42:00,
2013-01-25 05:52:00,49.0,49.0,30.07,West,277,2.0,3.0,100,0.00,,,0.00,,2013-01-25 11:52:00,
2013-01-25 06:02:00,49.0,49.0,30.07,WSW,252,1.0,4.0,100,0.00,,,0.00,,2013-01-25 12:02:00,
2013-01-25 06:11:00,49.0,49.0,30.07,WSW,252,1.0,4.0,100,0.00,,,0.00,,2013-01-25 12:11:00,
2013-01-25 06:22:00,48.0,48.0,30.07,WSW,255,4.0,4.0,100,0.00,,,0.00,,2013-01-25 12:22:00,
2013-01-25 06:32:00,48.0,48.0,30.08,WSW,253,3.0,3.0,100,0.00,,,0.00,,2013-01-25 12:32:00,
2013-01-25 06:42:00,48.0,48.0,30.08,WSW,253,3.0,3.0,100,0.00,,,0.00,,2013-01-25 12:42:00,
2013-01-25 06:53:00,49.0,49.0,30.09,West,263,3.0,3.0,100,0.00,,,0.00,,2013-01-25 12:53:00,
2013-01-25 07:02:00,49.0,49.0,30.09,WSW,257,5.0,5.0,100,0.00,,,0.00,,2013-01-25 13:02:00,
2013-01-25 07:11:00,49.0,49.0,30.09,WSW,257,5.0,5.0,100,0.00,,,0.00,,2013-01-25 13:11:00,
2013-01-25 07:22:00,49.0,49.0,30.10,West,262,3.0,3.0,100,0.00,,,0.00,,2013-01-25 13:22:00,
2013-01-25 07:32:00,49.0,49.0,30.10,WNW,288,4.0,4.0,100,0.00,,,0.00,,2013-01-25 13:32:00,
2013-01-25 07:42:00,49.0,49.0,30.10,WNW,288,4.0,4.0,100,0.00,,,0.00,,2013-01-25 13:42:00,
2013-01-25 07:53:00,48.0,48.0,30.10,WSW,245,5.0,5.0,100,0.00,,,0.00,,2013-01-25 13:53:00,
2013-01-25 08:02:00,49.0,49.0,30.11,West,277,3.0,3.0,100,0.00,,,0.00,,2013-01-25 14:02:00,
2013-01-25 08:12:00,49.0,49.0,30.11,West,277,3.0,3.0,100,0.00,,,0.00,,2013-01-25 14:12:00,
2013-01-25 08:22:00,49.0,49.0,30.11,WSW,246,3.0,4.0,100,0.00,,,0.00,,2013-01-25 14:22:00,
2013-01-25 08:32:00,51.0,51.0,30.11,WSW,249,3.0,5.0,100,0.00,,,0.00,,2013-01-25 14:32:00,
2013-01-25 08:42:00,51.0,51.0,30.11,WSW,249,3.0,5.0,100,0.00,,,0.00,,2013-01-25 14:42:00,
2013-01-25 08:53:00,53.0,53.0,30.11,WSW,246,7.0,7.0,100,0.00,,,0.00,,2013-01-25 14:53:00,
2013-01-25 09:02:00,54.0,54.0,30.11,WSW,255,7.0,7.0,100,0.00,,,0.00,,2013-01-25 15:02:00,
2013-01-25 09:12:00,54.0,54.0,30.11,WSW,255,7.0,7.0,100,0.00,,,0.00,,2013-01-25 15:12:00,
2013-01-25 09:22:00,56.0,56.0,30.11,SW,232,6.0,6.0,100,0.00,,,0.00,,2013-01-25 15:22:00,
2013-01-25 09:32:00,57.0,57.0,30.12,WSW,239,7.0,9.0,100,0.00,,,0.00,,2013-01-25 15:32:00,
2013-01-25 09:42:00,57.0,57.0,30.12,WSW,239,7.0,9.0,100,0.00,,,0.00,,2013-01-25 15:42:00,
2013-01-25 09:53:00,59.0,59.0,30.12,WSW,248,4.0,6.0,100,0.00,,,0.00,,2013-01-25 15:53:00,
2013-01-25 10:03:00,59.0,59.0,30.12,SW,224,5.0,7.0,100,0.00,,,0.00,,2013-01-25 16:03:00,
2013-01-25 10:12:00,59.0,59.0,30.12,SW,224,5.0,7.0,100,0.00,,,0.00,,2013-01-25 16:12:00,
2013-01-25 10:22:00,60.0,60.0,30.12,SW,219,6.0,9.0,100,0.00,,,0.00,,2013-01-25 16:22:00,
2013-01-25 10:32:00,62.0,62.0,30.12,WSW,243,9.0,9.0,100,0.00,,,0.00,,2013-01-25 16:32:00,
2013-01-25 10:42:00,62.0,62.0,30.12,WSW,243,9.0,9.0,100,0.00,,,0.00,,2013-01-25 16:42:00,
2013-01-25 10:53:00,64.0,64.0,30.13,West,264,10.0,13.0,100,0.00,,,0.00,,2013-01-25 16:53:00,
2013-01-25 11:02:00,64.0,64.0,30.13,WNW,293,8.0,8.0,100,0.00,,,0.00,,2013-01-25 17:02:00,
2013-01-25 11:12:00,64.0,64.0,30.13,WNW,293,8.0,8.0,100,0.00,,,0.00,,2013-01-25 17:12:00,
2013-01-25 11:22:00,65.0,64.0,30.12,West,260,7.0,11.0,98,0.00,,,0.00,,2013-01-25 17:22:00,
2013-01-25 11:32:00,64.0,63.0,30.13,West,269,9.0,9.0,97,0.00,,,0.00,,2013-01-25 17:32:00,
2013-01-25 11:42:00,64.0,63.0,30.13,West,269,9.0,9.0,97,0.00,,,0.00,,2013-01-25 17:42:00,
2013-01-25 11:53:00,65.0,64.0,30.13,WNW,291,7.0,7.0,96,0.00,,,0.00,,2013-01-25 17:53:00,
2013-01-25 12:02:00,64.0,61.0,30.13,North,4,15.0,15.0,91,0.00,,,0.00,,2013-01-25 18:02:00,
2013-01-25 12:11:00,64.0,61.0,30.13,North,4,15.0,15.0,91,0.00,,,0.00,,2013-01-25 18:11:00,
2013-01-25 12:23:00,61.0,60.0,30.12,NNE,20,15.0,15.0,95,0.00,,,0.00,,2013-01-25 18:23:00,
2013-01-25 12:32:00,61.0,59.0,30.12,North,8,13.0,14.0,92,0.00,,,0.00,,2013-01-25 18:32:00,
2013-01-25 12:42:00,61.0,59.0,30.12,North,8,13.0,14.0,92,0.00,,,0.00,,2013-01-25 18:42:00,
2013-01-25 12:52:00,59.0,55.0,30.11,NNW,329,19.0,19.0,88,0.00,,,0.00,,2013-01-25 18:52:00,
2013-01-25 13:02:00,59.0,56.0,30.11,North,3,15.0,15.0,90,0.00,,,0.00,,2013-01-25 19:02:00,
2013-01-25 13:12:00,59.0,56.0,30.11,North,3,15.0,15.0,90,0.00,,,0.00,,2013-01-25 19:12:00,
2013-01-25 13:22:00,60.0,57.0,30.11,NNW,328,14.0,14.0,89,0.00,,,0.00,,2013-01-25 19:22:00,
2013-01-25 13:32:00,61.0,57.0,30.10,North,352,12.0,12.0,88,0.00,,,0.00,,2013-01-25 19:32:00,
2013-01-25 13:42:00,61.0,57.0,30.10,North,352,12.0,12.0,88,0.00,,,0.00,,2013-01-25 19:42:00,
2013-01-25 13:53:00,61.0,58.0,30.10,NNW,347,11.0,18.0,91,0.00,,,0.00,,2013-01-25 19:53:00,
2013-01-25 14:02:00,63.0,61.0,30.10,North,3,11.0,13.0,92,0.00,,,0.00,,2013-01-25 20:02:00,
2013-01-25 14:12:00,63.0,61.0,30.10,North,3,11.0,13.0,92,0.00,,,0.00,,2013-01-25 20:12:00,
2013-01-25 14:22:00,63.0,59.0,30.09,North,10,12.0,12.0,88,0.00,,,0.00,,2013-01-25 20:22:00,
2013-01-25 14:32:00,62.0,59.0,30.10,NNW,328,12.0,12.0,90,0.00,,,0.00,,2013-01-25 20:32:00,
2013-01-25 14:42:00,62.0,59.0,30.10,NNW,328,12.0,12.0,90,0.00,,,0.00,,2013-01-25 20:42:00,
2013-01-25 14:52:00,63.0,60.0,30.09,NNW,342,12.0,13.0,89,0.00,,,0.00,,2013-01-25 20:52:00,
2013-01-25 15:02:00,63.0,60.0,30.09,NNE,17,9.0,10.0,90,0.00,,,0.00,,2013-01-25 21:02:00,
2013-01-25 15:11:00,63.0,60.0,30.09,NNE,17,9.0,10.0,90,0.00,,,0.00,,2013-01-25 21:11:00,
2013-01-25 15:22:00,64.0,61.0,30.09,NNW,345,9.0,9.0,90,0.00,,,0.00,,2013-01-25 21:22:00,
2013-01-25 15:32:00,65.0,60.0,30.09,NW,318,9.0,10.0,83,0.00,,,0.00,,2013-01-25 21:32:00,
2013-01-25 15:42:00,65.0,60.0,30.09,NW,318,9.0,10.0,83,0.00,,,0.00,,2013-01-25 21:42:00,
2013-01-25 15:52:00,66.0,55.0,30.08,NW,325,9.0,10.0,68,0.00,,,0.00,,2013-01-25 21:52:00,
2013-01-25 16:02:00,66.0,56.0,30.09,NNW,345,11.0,11.0,71,0.00,,,0.00,,2013-01-25 22:02:00,
2013-01-25 16:11:00,65.0,56.0,30.09,NNW,332,11.0,11.0,72,0.00,,,0.00,,2013-01-25 22:11:00,
2013-01-25 16:22:00,65.0,56.0,30.09,NNW,332,11.0,11.0,72,0.00,,,0.00,,2013-01-25 22:22:00,
2013-01-25 16:32:00,65.0,55.0,30.08,North,350,10.0,10.0,70,0.00,,,0.00,,2013-01-25 22:32:00,
2013-01-25 16:42:00,65.0,55.0,30.08,North,350,10.0,10.0,70,0.00,,,0.00,,2013-01-25 22:42:00,
2013-01-25 16:52:00,63.0,48.0,30.08,NNW,335,10.0,10.0,58,0.00,,,0.00,,2013-01-25 22:52:00,
2013-01-25 17:02:00,63.0,47.0,30.09,North,357,9.0,10.0,56,0.00,,,0.00,,2013-01-25 23:02:00,
2013-01-25 17:11:00,63.0,47.0,30.09,North,357,9.0,10.0,56,0.00,,,0.00,,2013-01-25 23:11:00,
2013-01-25 17:22:00,62.0,46.0,30.09,North,8,9.0,9.0,55,0.00,,,0.00,,2013-01-25 23:22:00,
2013-01-25 17:32:00,61.0,46.0,30.10,North,4,7.0,7.0,57,0.00,,,0.00,,2013-01-25 23:32:00,
2013-01-25 17:42:00,61.0,46.0,30.10,North,4,7.0,7.0,57,0.00,,,0.00,,2013-01-25 23:42:00,
2013-01-25 17:53:00,60.0,45.0,30.10,NNE,13,8.0,10.0,58,0.00,,,0.00,,2013-01-25 23:53:00,
2013-01-25 18:02:00,59.0,46.0,30.11,North,357,5.0,6.0,61,0.00,,,0.00,,2013-01-26 00:02:00,
2013-01-25 18:11:00,59.0,46.0,30.11,North,357,5.0,6.0,61,0.00,,,0.00,,2013-01-26 00:11:00,
2013-01-25 18:22:00,58.0,45.0,30.11,NNE,24,6.0,6.0,62,0.00,,,0.00,,2013-01-26 00:22:00,
2013-01-25 18:32:00,57.0,45.0,30.11,North,8,7.0,10.0,64,0.00,,,0.00,,2013-01-26 00:32:00,
2013-01-25 18:42:00,57.0,45.0,30.11,North,8,7.0,10.0,64,0.00,,,0.00,,2013-01-26 00:42:00,
2013-01-25 18:53:00,56.0,44.0,30.12,North,8,9.0,11.0,64,0.00,,,0.00,,2013-01-26 00:53:00,
2013-01-25 19:01:00,55.0,43.0,30.12,NNW,340,14.0,14.0,64,0.00,,,0.00,,2013-01-26 01:01:00,
2013-01-25 19:11:00,55.0,43.0,30.12,NNW,340,14.0,14.0,64,0.00,,,0.00,,2013-01-26 01:11:00,
2013-01-25 19:22:00,53.0,43.0,30.14,North,4,9.0,9.0,68,0.00,,,0.00,,2013-01-26 01:22:00,
2013-01-25 19:32:00,52.0,42.0,30.14,North,349,8.0,10.0,69,0.00,,,0.00,,2013-01-26 01:32:00,
2013-01-25 19:42:00,52.0,42.0,30.14,North,349,8.0,10.0,69,0.00,,,0.00,,2013-01-26 01:42:00,
2013-01-25 19:52:00,51.0,42.0,30.14,North,349,6.0,9.0,71,0.00,,,0.00,,2013-01-26 01:52:00,
2013-01-25 20:01:00,50.0,41.0,30.15,North,8,7.0,7.0,72,0.00,,,0.00,,2013-01-26 02:01:00,
2013-01-25 20:11:00,50.0,41.0,30.15,North,8,7.0,7.0,72,0.00,,,0.00,,2013-01-26 02:11:00,
2013-01-25 20:22:00,49.0,41.0,30.16,NE,45,5.0,6.0,73,0.00,,,0.00,,2013-01-26 02:22:00,
2013-01-25 20:32:00,48.0,40.0,30.15,North,0,6.0,6.0,75,0.00,,,0.00,,2013-01-26 02:32:00,
2013-01-25 20:42:00,48.0,40.0,30.15,North,0,6.0,6.0,75,0.00,,,0.00,,2013-01-26 02:42:00,
2013-01-25 20:52:00,48.0,41.0,30.16,NNE,13,6.0,6.0,76,0.00,,,0.00,,2013-01-26 02:52:00,
2013-01-25 21:01:00,48.0,41.0,30.16,NNE,20,3.0,3.0,76,0.00,,,0.00,,2013-01-26 03:01:00,
2013-01-25 21:11:00,48.0,41.0,30.16,NNE,20,3.0,3.0,76,0.00,,,0.00,,2013-01-26 03:11:00,
2013-01-25 21:21:00,48.0,41.0,30.17,NNE,14,4.0,4.0,76,0.00,,,0.00,,2013-01-26 03:21:00,
2013-01-25 21:31:00,47.0,41.0,30.17,NNE,15,3.0,3.0,78,0.00,,,0.00,,2013-01-26 03:31:00,
2013-01-25 21:42:00,47.0,41.0,30.17,NNE,15,3.0,3.0,78,0.00,,,0.00,,2013-01-26 03:42:00,
2013-01-25 21:52:00,47.0,41.0,30.18,NNW,345,2.0,2.0,78,0.00,,,0.00,,2013-01-26 03:52:00,
2013-01-25 22:01:00,47.0,41.0,30.19,North,356,1.0,2.0,78,0.00,,,0.00,,2013-01-26 04:01:00,
2013-01-25 22:12:00,47.0,41.0,30.19,North,356,1.0,2.0,78,0.00,,,0.00,,2013-01-26 04:12:00,
2013-01-25 22:21:00,47.0,41.0,30.19,North,1,4.0,4.0,80,0.00,,,0.00,,2013-01-26 04:21:00,
2013-01-25 22:32:00,47.0,41.0,30.19,NE,34,1.0,0.0,79,0.00,,,0.00,,2013-01-26 04:32:00,
2013-01-25 22:42:00,47.0,41.0,30.19,NE,34,1.0,0.0,79,0.00,,,0.00,,2013-01-26 04:42:00,
2013-01-25 22:52:00,47.0,41.0,30.19,NE,34,0.0,0.0,79,0.00,,,0.00,,2013-01-26 04:52:00,
2013-01-25 23:03:00,47.0,41.0,30.20,NE,34,0.0,0.0,79,0.00,,,0.00,,2013-01-26 05:03:00,
2013-01-25 23:12:00,47.0,41.0,30.20,NE,34,0.0,0.0,79,0.00,,,0.00,,2013-01-26 05:12:00,
2013-01-25 23:23:00,47.0,41.0,30.20,East,80,0.0,0.0,80,0.00,,,0.00,,2013-01-26 05:23:00,
2013-01-25 23:33:00,48.0,42.0,30.20,North,350,3.0,3.0,80,0.00,,,0.00,,2013-01-26 05:33:00,
2013-01-25 23:41:00,48.0,42.0,30.20,North,350,3.0,3.0,80,0.00,,,0.00,,2013-01-26 05:41:00,
2013-01-25 23:52:00,47.0,41.0,30.19,ESE,103,1.0,1.0,81,0.00,,,0.00,,2013-01-26 05:52:00,